ONEWEB-0291 (49081 NORAD) Tracking and Keplerian Element Data

This shows tracking and keplerian element data for the satellite.

Feedback or suggestion? Click here.




ElementValue
Catalog49081
NameONEWEB-0291
Epoch Orbit352
Epoch Day300.58334491
Epoch Year2021
RAAN344.3729
Inclination87.5574
Eccentricity0.0021191
Argument of Perigee63.2123
Mean Anonmoly154.9588
Mean Motion14.33440066
Decay Rate-0.01382779
L11 49081U 21075G 21300.58334491 -.01382779 00000-0 -53388+0 0 9995
L22 49081 87.5574 344.3729 0021191 63.2123 154.9588 14.33440066 3524

Live tracking and technical data element details for ONEWEB-0291 (NORAD 49081). ONEWEB-0291 can be tracked NOW for your location showing map with azimuth and elevation plus other details from your city location.

Track the satellite on the map from your city or location and see movement details for azimuth, elevation, latitude, longitude, range, height, and movement on the map or in text.







IsCatalogInMostPopularTable: catalog: 49081, numindb: 22
Update: records affected: 1



GetName: 49081 ONEWEB-0291

Hit Count: updated at: Thu, 28 Oct 2021 10:24:42 GMT